sat.trackr.live / text

‹ back to catalog

STARLINK-3360

NORAD 51149 · 2022-005AX

PAYLOAD ACTIVE UNKNOWN

§ Identity

Operator
Country
US
Launch date
2022-01-19
Launch site
AFETR
Launch vehicle
Mass (kg)
RCS (m²)

Purposes: comms

External: N2YO · Heavens-Above · Gunter

§ Orbital elements

Epoch: 2026-05-24T21:35:58.183872Z

Period
95.44 min
Inclination
53.2147°
Eccentricity
0.0001361
Mean motion
15.08842076 rev/d
Perigee alt
538.8 km
Apogee alt
540.7 km
Semi-major
6,917.9 km
B*
6.6343e-5
RAAN
326.8163°
Arg perigee
85.5602°
Mean anomaly
274.5545°
Rev number
24,010

§ Raw data

STARLINK-33601 51149U 22005AX  26144.89997898  .00000768  00000+0  66343-4 0  99992 51149  53.2147 326.8163 0001361  85.5602 274.5545 15.08842076240100

JSON: /api/v1/satellites/51149 · /tle

For live sub-satellite position, see the globe view (requires WebGL).

§ Visibility from observer

Set your observer location to see the next 7 days of passes ≥ 10°. The values pass through the URL so the page stays shareable.

No JS? Fill the form by hand. The geolocation button needs JavaScript.